GFSNGP_sfc_thetae_000.txt.gz
Theta_e
295 297 298 297 297 299 297 296 293 294 295 299 303 308 310 310 309 309 310 311 312 311 310 309 310 312 314 314 311 314 313 316 319 319 320 322 322 320 321 321 322 323 324 325
293 296 297 295 299 300 300 297 297 298 297 303 308 310 309 310 309 309 310 312 313 313 311 310 311 313 315 314 310 314 313 313 319 319 324 322 322 319 322 321 321 321 322 323
290 296 295 291 297 300 300 301 299 295 298 302 303 309 310 309 310 310 310 312 313 314 313 311 311 314 314 313 311 314 313 314 315 315 322 319 320 318 319 316 315 316 316 316
288 292 285 296 302 304 301 301 301 299 301 303 306 307 313 313 311 311 311 313 314 315 314 312 312 313 314 312 312 315 313 315 313 315 322 317 316 317 317 314 314 312 312 311
285 288 293 299 301 300 298 297 301 302 302 304 305 308 308 314 314 313 313 314 315 316 315 312 312 313 314 311 310 314 314 314 313 314 320 318 315 316 315 314 312 312 311 309
289 284 285 296 304 307 304 296 303 303 302 302 309 302 306 313 314 313 314 315 315 316 314 313 313 313 314 310 308 312 314 315 314 313 318 319 315 316 316 314 313 313 311 309
288 284 294 301 305 308 294 294 304 305 305 303 304 307 311 316 315 315 315 314 316 316 313 314 314 314 313 310 308 310 314 316 314 313 316 320 318 318 318 317 315 311 310 308
288 286 288 302 304 297 299 306 307 305 304 305 306 306 307 314 316 316 315 314 317 316 314 314 315 315 314 310 311 311 312 313 314 313 318 322 320 318 319 317 315 313 310 307
290 293 296 302 300 301 299 301 308 307 308 308 307 307 311 311 315 317 316 316 318 317 314 314 315 316 314 314 312 312 311 310 310 314 317 323 321 319 317 318 316 314 313 309
290 298 295 298 300 301 301 300 305 309 308 308 308 308 310 313 315 317 317 317 319 317 314 314 315 316 315 316 315 313 310 309 308 314 320 323 323 322 320 317 316 315 314 311
291 296 295 300 299 300 301 301 301 308 310 309 308 307 311 313 315 318 318 319 319 317 316 316 316 316 316 318 317 314 311 310 310 315 321 321 322 321 320 319 318 315 315 315
288 295 294 295 299 302 300 299 301 302 308 309 312 308 312 314 317 318 319 319 319 319 318 318 317 316 317 319 318 315 313 312 311 316 320 321 318 308 295 301 302 303 303 310
296 300 298 298 301 303 301 301 302 303 308 307 313 315 311 313 314 317 320 320 320 320 320 319 319 317 319 320 319 316 315 314 311 315 319 318 318 316 311 302 296 298 298 300
301 300 296 299 297 301 302 303 303 304 307 308 310 315 317 315 314 317 320 321 322 323 321 321 320 319 321 321 320 317 317 306 312 316 318 318 319 318 316 311 308 303 295 296
300 300 299 301 300 301 303 303 303 304 306 306 307 315 317 317 315 317 320 323 323 324 323 323 322 321 322 321 320 318 318 314 313 314 317 316 318 317 316 312 311 305 299 295
298 298 299 299 299 301 300 303 303 303 306 306 308 316 316 319 320 319 320 322 322 321 324 324 324 324 324 322 320 319 318 309 311 313 314 316 316 315 314 313 310 308 304 303
295 294 296 297 298 298 300 303 305 306 307 307 307 318 317 317 321 320 320 319 320 320 324 326 325 327 326 323 321 320 320 314 309 315 313 315 315 314 314 313 312 309 309 304
300 300 298 299 298 299 300 304 305 307 306 308 308 313 316 316 317 316 315 322 322 322 322 323 326 326 327 325 323 323 321 316 315 316 316 314 313 314 313 312 312 311 310 303
299 301 300 300 300 300 302 306 307 306 307 307 307 308 312 314 316 318 316 320 323 322 322 321 306 317 325 320 318 323 322 318 316 316 316 309 311 314 313 312 310 312 311 306
297 299 304 304 301 301 300 303 306 305 306 306 306 309 308 312 314 315 319 319 320 322 324 322 324 320 316 311 308 321 322 320 317 317 316 314 314 313 313 305 311 310 310 310
297 298 299 303 305 306 302 304 306 305 305 307 307 308 309 311 314 319 320 320 323 320 320 315 323 323 322 314 314 317 318 318 317 317 315 313 313 314 314 312 310 308 307 307
299 299 299 302 303 304 306 306 303 306 306 307 308 309 309 309 318 316 313 315 311 299 315 315 312 301 310 306 321 318 318 319 317 315 314 313 312 313 316 316 315 310 308 305
300 301 302 301 301 303 305 306 307 310 312 311 312 311 310 314 315 316 312 313 311 303 310 305 290 288 296 316 317 317 317 316 315 315 315 316 315 314 314 314 312 310 305 306
301 301 301 302 302 303 303 305 306 305 309 314 313 312 315 312 313 313 311 304 297 307 311 306 298 291 300 318 316 315 314 312 311 310 309 299 310 310 309 308 306 304 305 303
302 303 303 303 302 302 304 306 306 308 312 313 316 316 316 317 315 316 314 312 298 312 316 298 297 296 316 317 317 315 314 313 311 309 308 307 306 304 304 304 304 302 300 299
302 302 303 304 305 306 305 306 307 308 310 311 313 315 315 314 314 313 314 308 313 304 314 313 315 317 317 316 315 314 312 310 310 307 304 303 301 300 299 298 297 297 296 296
303 298 303 304 305 306 305 306 307 308 307 311 310 312 314 315 314 310 304 312 312 310 310 311 311 310 313 313 312 312 311 309 303 306 303 301 300 299 298 298 297 297 296 297

GFSNGP_sfc_thetae_003.txt.gz
Theta_e
292 293 295 294 294 294 292 294 291 294 293 297 302 303 306 306 306 307 309 309 310 309 309 308 308 310 311 314 312 313 311 317 318 316 318 319 319 319 319 319 320 321 322 322
291 293 293 292 295 295 296 295 295 295 294 299 304 307 307 307 307 308 309 311 311 311 310 310 310 310 311 313 311 312 311 317 317 316 318 319 316 317 318 318 319 321 320 321
285 293 291 288 293 294 296 297 297 292 296 300 302 307 308 307 308 309 310 312 311 311 310 310 312 313 311 312 310 311 310 315 317 316 318 318 317 317 317 315 314 316 316 317
281 288 281 292 298 298 298 298 298 296 299 302 304 310 311 311 309 309 311 312 313 313 312 310 311 312 312 311 311 311 310 313 313 314 317 316 315 316 313 311 312 312 312 313
281 282 290 295 299 297 295 295 300 299 300 302 304 307 306 311 313 312 312 314 314 315 314 311 310 312 312 309 311 312 311 312 311 314 315 314 313 314 311 310 309 310 310 312
285 280 282 292 298 302 302 291 300 304 303 300 304 301 303 310 312 311 312 314 314 315 314 311 310 311 312 309 311 311 312 312 311 313 316 314 314 313 311 310 309 310 309 309
282 282 292 296 299 301 291 290 297 303 304 301 303 306 310 312 312 313 312 313 314 314 313 311 311 312 311 308 310 313 314 312 310 311 317 315 314 314 311 310 309 308 308 306
288 283 285 297 297 290 294 297 298 298 304 303 305 306 308 312 313 311 310 311 313 313 313 312 312 312 311 308 310 313 313 313 310 308 317 317 315 314 313 311 308 307 306 305
289 290 298 298 296 298 298 297 298 298 300 306 305 303 308 311 313 313 312 312 314 314 312 312 312 313 311 311 308 310 312 312 310 308 312 318 315 314 314 312 310 308 307 305
290 296 296 297 299 299 301 299 300 301 301 306 305 305 306 312 313 313 312 312 314 314 311 310 312 313 314 312 310 309 310 309 310 309 310 317 318 317 316 314 312 312 309 306
290 295 296 298 297 298 300 301 301 302 302 304 304 309 305 309 313 315 314 313 315 314 312 312 313 313 314 313 311 309 309 308 307 311 313 316 317 316 318 318 316 315 314 313
287 294 294 295 297 299 300 299 301 301 302 304 304 307 311 308 313 316 315 315 315 315 314 313 313 313 313 315 313 310 308 307 307 310 314 317 316 308 296 298 302 300 302 310
294 299 298 299 300 301 301 301 303 302 303 303 304 307 313 310 309 313 316 316 316 315 315 314 314 314 314 316 315 312 310 309 308 311 316 317 316 314 312 303 297 297 296 299
299 300 296 299 296 300 301 304 305 304 305 306 306 313 314 316 313 314 316 317 318 317 316 316 315 314 316 317 316 314 312 303 309 313 316 317 317 315 316 311 310 306 294 298
298 300 299 299 299 301 302 302 303 303 304 305 306 310 314 313 316 316 315 317 318 318 317 317 316 315 317 317 316 315 313 311 311 313 316 315 317 316 314 312 310 306 297 293
298 300 298 297 298 299 299 301 302 304 305 305 305 307 313 316 319 319 317 318 315 317 318 318 318 318 318 318 317 315 315 306 307 313 314 315 315 315 313 311 309 308 303 304
295 295 297 299 298 297 297 299 302 305 308 307 305 306 311 312 314 316 320 317 318 318 319 320 320 320 320 319 317 316 316 311 306 312 314 315 315 314 314 313 311 308 309 304
296 297 298 301 297 298 297 300 302 305 307 309 308 307 308 309 310 312 316 319 319 319 319 321 322 322 321 320 319 318 317 314 311 312 313 314 314 314 314 314 313 311 310 303
296 296 297 298 302 301 298 300 302 305 307 308 308 307 308 308 311 312 314 317 320 318 318 321 311 312 322 317 315 319 317 314 314 313 312 306 309 313 313 313 313 312 311 304
298 298 298 298 299 301 302 302 301 302 305 306 306 308 307 307 310 313 315 315 318 319 321 322 321 320 323 314 307 320 318 315 314 314 313 312 311 311 312 305 311 311 311 309
299 299 298 298 298 300 302 304 301 301 305 305 304 304 307 309 312 317 316 316 320 320 316 310 318 320 316 310 314 319 319 316 315 314 312 312 312 312 311 311 311 308 309 309
300 299 299 299 299 299 301 302 303 304 303 304 305 308 308 309 311 315 315 314 314 300 312 317 319 309 312 304 318 318 318 317 316 315 313 312 312 311 312 312 310 309 308 308
301 301 301 301 300 299 301 301 303 304 306 307 307 307 308 310 312 311 312 314 314 308 313 314 303 294 296 319 318 316 316 316 315 315 314 313 312 312 313 313 313 312 309 305
301 302 302 303 303 300 298 300 302 304 304 307 308 307 310 309 310 313 315 304 294 301 311 313 304 296 302 315 315 314 313 313 313 312 310 300 312 311 311 310 309 306 304 302
301 302 301 302 302 301 301 301 302 303 304 303 304 306 307 313 309 313 314 314 299 302 317 298 296 294 317 315 313 311 310 309 309 309 309 307 306 305 305 304 303 302 299 299
301 301 301 302 301 303 305 304 303 305 305 304 305 308 310 312 313 312 312 306 313 304 314 313 314 317 316 315 313 310 308 304 306 304 303 302 301 300 298 298 297 295 295 294
301 298 302 301 302 303 304 304 306 305 305 305 306 307 312 312 311 311 305 312 311 307 308 309 311 308 313 312 310 309 307 305 301 303 301 300 299 298 297 296 295 295 295 295

GFSNGP_sfc_thetae_006.txt.gz
Theta_e
287 291 291 291 291 291 289 291 287 289 291 294 298 301 302 303 305 306 307 308 309 309 307 306 307 309 313 313 313 313 313 318 318 318 319 319 319 320 320 321 322 323 324 323
285 291 293 290 291 292 292 292 292 292 292 297 300 304 304 305 306 307 308 309 310 310 309 308 308 309 312 314 312 313 312 318 318 319 320 319 319 319 320 321 321 323 323 324
279 286 289 285 291 291 292 293 293 290 296 298 302 304 304 304 307 308 309 310 310 311 311 310 310 311 310 312 312 312 312 318 318 319 319 318 319 319 319 319 320 321 320 322
279 285 279 290 297 295 294 296 296 295 297 299 302 307 307 308 308 309 310 311 312 312 311 310 311 310 312 312 312 312 312 316 317 319 319 318 318 318 316 316 317 317 317 320
279 280 287 293 294 292 292 293 295 297 301 303 304 306 306 310 310 311 312 313 313 313 312 309 311 312 312 311 311 311 311 314 315 317 318 317 317 316 314 314 314 315 316 320
282 279 280 289 294 299 300 289 295 296 296 298 302 298 303 309 311 310 312 314 313 313 312 310 311 312 312 310 311 311 312 313 313 317 318 316 316 315 314 314 314 314 314 318
281 278 289 294 296 299 288 287 296 296 296 297 299 302 305 307 311 313 313 314 314 313 312 312 311 313 312 310 311 313 314 313 312 316 317 317 315 315 314 313 313 312 311 311
286 285 285 297 295 289 293 296 297 297 297 297 298 304 306 307 311 310 311 312 313 313 313 312 311 313 312 310 313 313 313 313 311 313 318 316 316 315 313 312 311 310 309 309
289 288 296 298 297 300 300 296 297 297 299 300 299 302 305 306 310 311 311 313 314 314 313 311 312 314 312 312 311 312 313 312 311 311 318 317 316 314 312 312 311 309 310 309
289 292 293 296 300 300 299 297 299 300 300 301 300 302 305 305 309 310 311 312 313 313 311 310 312 314 315 312 312 312 312 312 310 309 314 317 318 317 314 312 311 310 310 310
289 293 294 297 298 299 300 299 300 301 302 302 302 302 303 308 310 311 311 312 314 313 311 311 312 313 314 312 311 311 312 312 310 310 312 317 317 316 317 317 313 313 312 312
287 294 293 294 298 300 299 299 299 300 301 304 304 305 310 311 308 312 311 312 313 313 312 312 313 313 313 313 311 311 310 309 310 311 310 316 316 311 295 300 303 299 300 309
293 298 298 298 300 301 300 299 300 301 302 302 305 305 311 311 312 310 312 312 313 313 313 312 313 313 314 313 312 311 310 309 308 310 312 314 316 316 314 306 299 299 299 299
299 299 296 298 297 300 299 301 303 302 304 304 305 305 311 314 314 312 313 314 315 315 314 313 313 313 314 315 313 312 312 302 309 311 313 315 316 317 317 316 315 314 298 301
297 299 299 301 300 299 300 301 300 300 303 305 305 306 308 311 316 316 315 315 316 315 315 314 314 314 315 316 314 313 311 309 311 312 315 314 317 317 317 317 317 314 304 297
296 296 299 299 299 301 301 299 299 301 302 305 305 305 308 310 313 316 318 315 315 314 315 315 315 316 316 316 316 314 313 305 307 312 315 316 316 316 316 315 315 314 310 312
292 292 294 294 296 298 300 299 299 300 302 306 306 306 308 309 311 312 314 318 317 317 317 317 316 317 317 317 317 315 315 310 306 313 315 316 316 316 316 315 315 314 314 309
297 296 296 296 296 296 298 302 301 301 302 306 309 307 307 307 308 311 313 316 318 318 319 320 320 319 318 318 317 317 316 313 312 313 315 315 316 317 316 316 315 314 314 308
299 298 297 297 298 297 297 299 302 303 303 305 306 305 307 308 310 312 314 316 317 317 318 320 306 314 319 314 314 317 316 314 312 314 315 309 312 316 316 316 316 315 315 310
300 301 300 300 300 299 298 299 300 302 304 303 304 305 306 308 310 315 316 316 317 318 321 318 321 320 321 316 301 318 317 315 313 313 313 313 314 314 315 307 315 316 315 313
300 301 301 300 300 300 300 300 300 301 302 303 303 303 304 309 310 315 314 314 317 314 315 306 319 320 320 314 308 317 317 316 315 314 312 312 313 314 314 315 314 314 313 314
301 300 301 301 301 301 302 301 301 301 302 303 304 303 305 308 309 309 315 314 315 298 313 319 311 295 301 301 317 319 318 316 316 315 314 314 313 312 313 314 313 313 312 313
299 301 301 301 301 302 304 302 301 301 301 302 303 304 306 306 310 306 305 311 313 305 313 313 296 294 292 313 315 319 320 318 316 316 315 314 314 314 314 314 314 314 313 312
299 301 301 302 302 301 301 302 302 301 302 302 303 306 306 307 308 311 313 303 294 300 310 309 303 292 299 318 317 316 318 319 318 317 315 302 315 314 314 314 314 315 314 306
297 300 302 301 300 300 301 300 303 301 302 302 303 304 306 308 307 306 310 311 294 305 317 296 293 296 317 318 319 317 316 316 316 315 314 314 313 313 312 312 313 312 311 310
296 299 301 301 301 301 300 300 300 303 304 303 304 305 304 306 308 307 309 304 311 303 313 314 315 318 319 318 317 316 312 308 309 309 308 308 307 306 305 303 302 303 303 302
296 296 300 300 301 302 299 299 300 299 302 305 305 307 306 307 307 304 301 310 311 312 312 313 312 309 315 314 312 311 309 307 302 306 305 304 303 302 301 300 299 299 299 298

GFSNGP_sfc_thetae_009.txt.gz
Theta_e
290 292 293 294 294 294 293 295 291 295 296 300 306 307 310 313 313 314 315 315 316 317 319 319 320 321 321 322 324 325 325 328 329 330 330 329 329 329 329 330 330 331 331 331
289 292 293 292 295 295 295 295 295 296 297 305 307 309 310 312 313 313 315 316 317 318 319 319 319 319 321 323 323 325 325 328 328 329 328 329 329 329 329 329 331 331 330 330
286 291 292 289 294 296 296 297 297 293 299 304 304 308 312 313 314 315 316 317 317 318 320 320 320 321 320 324 324 324 324 327 327 328 327 327 328 328 328 329 331 331 330 331
287 290 284 295 300 301 298 298 299 300 303 305 308 310 312 315 316 316 318 318 319 320 321 321 321 321 322 324 323 322 323 326 326 327 326 327 328 328 329 329 330 330 330 331
286 289 294 295 296 295 297 295 299 299 301 303 305 310 312 316 318 319 321 321 322 322 323 323 321 322 322 323 323 322 321 326 326 327 326 327 327 328 327 328 328 327 328 329
288 287 286 292 297 300 303 294 300 300 301 301 304 302 309 310 314 318 322 323 322 323 323 323 323 323 321 321 322 322 321 324 326 328 327 328 329 328 327 328 327 325 327 331
287 287 290 296 299 301 294 293 300 301 302 302 301 306 307 311 314 319 322 323 323 323 323 323 324 323 321 322 321 324 323 323 325 327 329 330 331 328 326 326 325 326 325 326
288 287 285 299 297 293 296 301 301 302 303 303 305 306 308 311 313 317 320 321 322 321 322 324 323 323 322 321 324 325 324 322 324 327 328 327 330 328 326 327 324 323 323 324
288 289 297 300 298 301 301 300 301 302 304 305 306 307 309 310 313 317 320 321 322 322 322 322 322 323 322 323 324 324 323 323 323 325 326 328 328 327 323 325 323 322 321 321
290 293 295 298 300 301 301 301 303 303 304 307 306 308 310 313 315 316 319 321 322 322 321 320 322 323 325 324 323 323 323 324 323 322 325 327 327 327 325 322 322 320 320 321
290 294 296 298 299 299 300 302 302 303 304 306 308 308 310 311 318 317 319 321 322 322 321 321 321 322 325 324 322 322 324 323 322 322 323 326 327 326 325 327 321 322 321 321
289 294 294 295 299 301 299 300 302 302 303 306 309 309 312 314 319 320 319 320 321 322 322 322 321 322 323 323 323 324 323 322 321 320 320 324 325 322 296 302 302 299 302 314
295 299 299 299 301 301 299 299 303 304 304 305 309 310 312 317 321 319 319 319 320 322 322 322 321 322 323 323 322 323 324 324 321 317 319 320 324 324 323 311 301 299 300 300
299 300 298 299 298 302 302 303 304 304 305 306 309 311 311 316 319 322 319 320 322 322 321 321 321 321 323 323 322 323 326 307 322 320 320 319 321 322 323 323 323 323 301 306
297 298 299 300 302 303 303 303 302 302 303 305 307 309 310 311 316 319 323 322 322 322 321 320 320 322 323 322 323 323 323 319 322 321 321 318 321 321 321 322 323 324 325 303
297 298 299 298 299 300 301 301 301 303 304 304 306 308 311 311 314 320 322 323 320 320 321 320 321 323 323 323 323 323 322 310 314 321 320 320 320 321 321 321 321 322 322 323
296 296 297 297 298 299 299 300 301 302 305 305 306 309 309 310 312 317 322 324 324 323 324 323 323 323 322 323 325 322 321 318 311 320 320 320 320 320 321 321 321 321 322 320
299 300 301 300 299 299 300 301 301 301 302 306 307 307 307 308 310 314 321 324 325 325 325 325 325 324 323 323 324 323 322 321 317 319 321 321 323 322 322 321 321 321 322 319
302 301 302 302 302 302 302 302 302 303 303 305 306 306 307 308 311 313 321 323 323 324 326 328 308 316 325 320 319 323 322 321 318 320 321 314 320 322 322 322 321 322 322 321
301 302 302 302 304 304 303 304 305 304 304 305 306 306 307 308 310 312 317 321 324 326 329 327 326 326 326 319 306 323 323 322 320 319 320 321 321 322 323 312 321 322 323 322
301 302 302 301 302 304 304 305 305 304 305 305 304 304 306 308 308 311 314 319 324 322 319 311 325 327 328 317 315 323 322 322 321 321 320 320 321 321 322 324 322 323 323 323
302 301 301 302 302 302 303 304 305 305 304 305 305 306 306 308 309 312 316 316 320 301 318 327 323 308 318 298 324 325 323 323 323 321 320 320 321 321 322 323 322 322 323 323
303 303 303 303 302 302 303 304 302 303 303 305 305 305 306 307 310 311 310 317 320 311 318 325 304 291 290 319 325 324 321 323 322 322 321 321 321 322 321 322 323 323 323 323
303 303 301 302 303 302 300 301 302 303 305 306 307 307 307 307 309 316 321 308 299 300 318 317 300 291 289 325 325 325 323 324 323 323 323 304 322 322 321 322 322 323 323 318
303 303 302 302 301 300 301 301 300 300 300 304 307 309 309 310 309 311 314 314 300 303 320 302 292 290 305 326 325 324 323 321 321 320 321 320 321 321 322 323 323 324 323 322
303 303 303 302 302 303 303 300 298 298 298 297 301 307 310 311 311 310 311 305 312 306 317 322 325 326 325 326 327 326 324 319 316 316 315 319 320 320 321 320 321 319 321 320
303 297 303 301 303 302 301 299 298 297 297 297 297 301 307 311 311 309 303 312 313 314 316 321 323 318 325 323 323 322 318 316 305 313 312 314 316 318 318 317 317 317 317 315

GFSNGP_sfc_thetae_015.txt.gz
Theta_e
293 297 299 299 299 301 301 302 299 302 302 306 311 313 315 319 321 321 322 323 324 325 326 328 328 326 325 326 327 330 329 330 333 334 334 332 332 331 331 330 330 332 332 331
289 295 298 298 300 301 302 303 303 303 303 308 311 314 314 317 319 320 321 323 324 325 327 327 326 324 325 326 327 329 328 330 332 332 331 332 332 331 331 331 332 333 331 332
285 294 296 294 299 300 302 304 304 300 304 310 310 311 315 316 318 320 322 323 325 326 327 327 326 325 325 326 327 328 328 330 330 330 330 330 331 331 331 335 337 334 334 333
288 292 286 298 305 305 303 305 307 307 307 310 311 312 314 318 319 318 323 324 326 327 329 329 327 325 326 326 326 326 328 329 330 329 329 330 331 331 333 338 335 334 334 334
287 289 296 298 303 303 302 302 308 306 308 311 312 313 313 319 321 323 325 327 328 329 331 329 326 325 325 325 324 326 328 329 329 330 330 331 331 332 334 337 337 336 336 334
291 287 285 297 304 308 309 299 308 309 309 310 312 306 313 319 320 323 328 329 329 330 331 329 326 326 325 324 323 324 328 329 330 331 331 331 333 334 335 335 333 334 334 334
291 292 296 302 307 308 297 299 309 310 311 311 310 314 316 320 321 323 326 330 331 331 331 329 327 326 324 324 323 325 329 330 331 332 332 334 334 335 335 334 333 335 333 334
293 289 288 304 305 301 305 310 310 311 311 312 314 316 318 320 321 322 324 328 331 330 331 330 327 325 324 324 325 326 327 330 332 333 332 333 334 332 332 333 334 334 333 331
289 288 298 303 302 306 309 308 309 310 312 313 314 316 319 320 321 323 324 328 331 331 331 329 327 326 324 326 325 326 326 330 332 333 333 334 334 331 328 331 330 332 330 332
292 295 298 302 303 305 307 308 310 311 312 313 314 317 319 321 323 323 326 327 330 331 330 328 327 326 326 326 325 325 325 328 330 331 331 333 331 330 326 326 327 328 327 328
292 295 299 302 303 304 307 309 309 311 312 312 314 316 318 320 325 326 327 327 330 330 331 329 327 326 326 327 325 325 326 326 328 329 331 331 331 328 328 330 322 325 328 329
290 296 296 299 304 306 306 307 308 308 310 313 315 315 318 319 323 326 328 327 329 331 331 330 327 325 326 326 325 326 327 325 325 326 328 330 328 329 298 304 303 305 302 314
297 302 301 303 305 307 306 307 309 308 311 311 314 316 318 318 321 321 328 328 328 330 331 331 328 325 325 326 326 325 330 330 325 321 325 327 329 328 326 317 303 304 303 300
302 303 301 302 302 307 307 308 309 310 311 312 314 316 317 317 318 321 327 329 329 329 330 331 329 324 325 326 325 326 331 309 326 323 323 323 326 328 329 327 325 325 305 307
300 302 303 306 306 307 308 308 308 308 309 309 312 314 315 315 317 319 323 330 330 329 330 331 329 325 327 326 326 326 327 325 326 324 323 320 323 324 327 327 327 326 325 306
303 303 303 302 305 305 306 307 306 307 308 309 310 311 312 315 317 318 321 324 330 328 328 330 330 329 327 328 330 327 328 313 317 325 323 322 322 323 322 322 323 323 323 323
301 301 302 301 301 304 306 307 307 307 309 309 310 311 311 313 316 318 319 322 327 332 332 330 331 332 329 329 333 327 326 327 316 323 323 322 321 321 322 322 322 322 322 321
306 304 303 303 303 302 303 305 307 308 308 310 311 311 311 311 313 316 318 320 326 332 331 333 332 332 332 330 334 329 328 328 326 324 323 323 322 322 322 322 322 322 323 320
303 304 302 305 305 304 304 305 305 306 308 310 310 311 312 312 313 315 318 318 322 327 326 334 314 323 334 328 325 330 329 329 328 327 326 316 324 323 321 322 322 322 322 322
302 304 304 304 305 305 303 304 305 304 305 306 308 309 310 312 313 314 316 316 320 326 325 330 331 335 335 329 307 330 330 329 330 328 327 325 326 327 324 312 321 322 324 323
302 304 304 304 306 305 305 306 304 303 305 305 304 306 307 311 313 313 313 314 321 322 321 313 332 333 333 318 323 328 329 331 332 332 328 328 327 327 327 328 325 325 325 325
304 304 304 303 305 304 307 306 304 304 303 301 302 304 305 308 312 313 315 314 317 301 317 321 324 304 315 298 329 330 328 329 332 331 331 329 329 330 329 330 328 328 328 328
303 304 305 303 303 304 305 306 306 305 302 301 300 301 303 305 309 311 310 316 317 308 321 320 299 292 292 325 328 330 331 328 331 331 332 332 330 330 331 330 331 331 330 331
305 304 304 306 305 303 304 304 306 306 303 303 302 302 301 301 305 312 316 307 299 303 315 315 307 291 290 322 329 330 330 328 330 330 330 310 330 329 329 329 329 329 330 323
305 306 305 304 304 303 305 305 304 305 303 303 302 303 301 302 301 306 310 314 303 306 318 302 292 293 316 321 324 329 330 332 331 331 331 330 329 329 330 330 329 327 331 331
305 305 305 306 305 305 304 304 302 303 302 301 303 302 301 301 300 300 305 304 312 307 314 315 317 310 317 323 324 328 329 329 330 330 328 331 331 331 330 330 329 327 327 328
304 300 305 305 305 305 305 304 302 302 303 303 301 303 301 300 298 296 295 302 307 312 316 316 316 311 314 316 320 324 326 328 317 329 331 332 331 331 331 331 331 331 330 330

GFSNGP_sfc_thetae_021.txt.gz
Theta_e
289 291 291 289 289 290 288 292 290 293 295 301 306 309 314 316 317 317 318 319 320 320 321 323 322 323 322 321 322 323 328 328 328 326 326 325 325 323 325 325 323 327 327 326
286 291 291 287 290 290 290 292 295 296 297 307 309 313 315 316 316 316 318 320 320 321 323 323 323 320 320 320 322 326 327 328 329 329 328 327 326 327 321 324 326 326 327 324
283 290 289 284 288 290 292 294 296 293 299 310 310 311 312 313 316 317 319 320 321 322 323 322 320 319 318 320 322 327 327 329 330 328 326 327 327 322 323 324 327 325 324 320
285 287 277 289 301 297 294 297 304 302 307 310 310 312 313 314 314 317 319 320 321 322 322 321 319 318 319 320 320 324 327 327 326 326 324 325 326 324 324 322 322 322 324 320
283 283 287 291 297 296 295 300 307 305 307 310 312 312 310 316 317 317 319 320 321 324 323 319 319 319 319 318 319 320 325 323 324 325 323 326 326 323 323 323 323 322 324 320
286 281 281 291 296 300 301 295 308 308 307 309 310 303 305 312 316 318 318 321 324 324 322 319 319 318 318 316 317 318 325 324 325 325 326 326 327 323 323 324 325 328 325 322
285 284 287 295 296 299 293 295 309 309 309 309 305 306 310 313 315 319 318 320 325 324 321 319 319 318 316 316 316 320 326 326 325 325 327 326 325 324 325 325 325 324 323 321
287 284 282 295 297 296 300 305 309 308 310 309 310 312 313 315 316 318 318 320 325 323 321 321 319 319 317 315 318 322 324 326 327 327 330 328 324 324 325 324 322 321 321 320
288 287 296 298 299 304 306 305 306 307 309 310 311 311 313 315 318 318 320 319 326 323 320 320 319 318 317 316 319 322 323 326 326 326 326 325 324 323 324 323 323 322 321 320
291 293 295 299 301 303 305 305 306 307 308 309 309 311 313 316 317 318 320 321 325 323 320 319 319 319 319 319 320 322 325 325 325 326 324 324 324 324 324 323 323 323 322 320
291 296 297 300 301 302 304 306 305 306 308 309 310 311 312 313 316 315 317 321 324 323 321 320 320 318 321 319 319 322 325 325 323 326 325 323 319 316 321 319 326 326 325 323
289 297 296 298 302 304 302 304 306 306 307 309 310 310 312 312 314 315 318 322 323 325 322 321 321 320 321 320 319 322 325 325 324 325 326 324 315 311 298 298 302 309 310 319
296 299 300 301 302 304 303 305 306 307 307 306 308 310 310 310 312 313 317 318 320 324 325 322 321 320 321 321 320 322 323 324 323 322 324 322 319 315 310 308 301 297 301 307
300 300 298 300 299 304 305 305 307 308 309 307 307 309 309 309 311 312 316 317 319 324 326 323 322 321 321 321 320 322 321 310 322 320 322 321 321 321 317 313 311 310 303 304
301 302 300 301 302 303 305 304 303 305 307 307 308 308 308 307 308 312 315 317 317 320 328 327 323 321 322 321 320 323 321 320 320 320 321 320 322 320 321 317 316 313 307 304
301 301 302 300 301 301 302 302 302 303 304 305 306 307 309 310 310 312 314 316 315 315 323 327 325 326 323 321 320 323 321 312 314 319 317 320 319 322 320 320 319 314 311 313
296 297 299 301 301 300 300 302 303 303 303 303 304 306 308 308 310 311 311 314 315 320 321 323 319 327 330 320 321 322 322 315 313 318 317 315 318 315 319 322 321 319 315 313
300 301 302 301 300 300 301 302 302 303 302 304 305 305 306 306 307 308 310 312 315 316 320 321 316 324 322 316 318 321 323 321 317 319 317 316 314 315 315 316 322 321 319 313
301 302 302 303 302 301 301 301 301 302 301 302 302 302 303 304 305 307 309 311 311 311 316 318 307 315 317 309 306 319 321 321 319 319 318 311 312 315 315 315 315 319 322 318
302 303 302 303 303 302 301 302 301 300 301 301 300 300 300 302 304 305 307 309 307 307 308 312 314 315 314 310 302 319 323 318 320 319 319 317 317 314 314 308 315 315 315 316
302 303 302 302 302 303 303 303 301 299 300 301 299 299 299 301 303 303 304 303 304 305 303 305 311 309 313 307 310 317 324 323 322 319 319 317 316 315 315 314 315 316 314 314
301 301 302 302 300 302 302 302 301 301 299 299 299 299 299 298 300 300 303 301 302 297 299 308 310 297 299 297 312 314 317 324 324 322 320 319 318 317 317 316 315 316 315 314
300 303 303 301 300 301 301 302 302 300 299 299 298 297 297 297 298 295 295 299 300 297 299 307 296 291 291 307 311 311 315 321 322 324 323 322 319 319 319 318 318 318 315 316
302 302 302 302 303 301 299 300 301 302 301 300 299 298 297 295 295 297 298 296 292 292 297 298 296 292 294 310 311 310 310 315 317 320 322 309 323 324 320 319 317 320 320 310
302 302 301 300 298 298 300 300 299 299 298 298 298 298 298 298 295 295 296 296 292 293 296 293 291 293 302 303 307 308 311 314 317 317 321 322 323 323 324 322 322 322 321 321
302 300 301 300 299 298 298 298 297 297 296 295 297 297 297 297 296 295 295 293 295 292 292 294 296 296 296 298 300 301 304 308 309 313 316 321 323 322 322 324 322 321 321 321
303 301 302 301 300 299 298 298 297 295 295 295 294 295 295 295 295 294 292 293 293 292 292 291 292 291 292 293 295 295 295 298 295 304 307 310 311 314 319 323 323 323 323 323

GFSNGP_sfc_thetae_024.txt.gz
Theta_e
286 288 289 289 289 289 287 288 284 289 291 295 298 300 311 314 316 317 318 319 320 320 322 322 323 323 323 321 321 324 326 327 325 325 323 322 322 321 326 324 325 326 327 323
284 288 289 287 290 290 289 290 289 290 291 299 311 311 312 315 316 316 318 319 320 321 322 322 322 322 321 320 319 324 326 326 327 327 324 324 321 320 321 321 323 325 323 320
280 288 289 283 288 289 290 293 293 288 294 300 310 312 310 314 316 317 318 319 320 321 322 322 322 321 318 318 322 324 327 329 328 325 324 323 324 322 319 324 323 325 319 316
280 284 277 289 297 298 293 294 296 301 301 302 307 313 315 315 315 318 319 320 321 322 322 322 321 318 317 321 323 324 327 329 326 323 322 322 321 318 319 320 320 320 317 316
280 278 286 292 293 294 294 296 305 303 307 309 310 311 312 316 316 318 320 321 322 323 322 319 318 317 319 320 322 323 325 325 325 323 321 323 323 319 319 320 318 319 318 316
284 280 277 289 293 298 298 292 306 306 305 307 309 301 307 313 317 315 319 319 322 322 321 318 315 318 318 317 319 321 325 323 324 323 323 323 324 320 320 320 322 322 319 317
282 277 286 291 293 297 290 295 304 307 307 308 305 309 311 315 317 317 316 320 322 321 319 317 317 318 316 315 315 321 324 325 322 322 322 322 321 320 321 321 321 322 319 316
286 283 281 295 295 294 298 304 305 306 308 311 312 313 313 315 316 318 317 321 322 319 317 317 317 317 315 313 316 322 324 323 322 323 325 324 321 322 322 321 319 318 317 316
286 285 291 296 299 302 303 301 303 305 308 312 311 311 312 311 312 315 320 321 321 318 317 316 316 317 314 315 317 322 322 322 322 324 324 322 321 321 320 319 318 317 317 317
288 293 295 298 301 303 303 303 304 306 308 308 308 309 310 311 312 316 320 322 321 318 316 315 314 317 317 315 319 323 322 323 323 323 321 321 322 322 321 319 318 319 318 315
290 295 297 299 301 302 303 305 305 307 306 307 306 306 308 309 311 314 316 319 322 318 317 316 315 316 317 316 321 323 323 323 323 322 321 319 316 317 322 322 321 321 320 318
288 296 296 297 302 304 303 303 304 304 305 306 306 305 307 307 310 313 314 316 320 319 319 318 317 316 319 316 323 323 321 323 323 322 320 318 312 308 298 300 300 305 309 315
294 298 299 301 302 304 303 304 305 305 305 305 306 306 306 306 309 311 314 314 316 319 321 320 318 317 320 317 324 323 322 322 323 321 322 317 313 311 309 306 297 298 300 303
299 299 297 300 299 303 304 304 305 305 305 305 305 307 307 307 309 311 312 313 315 321 326 321 319 318 320 318 323 324 322 310 324 324 324 320 316 312 310 310 312 313 300 301
300 300 299 300 301 301 303 304 302 301 302 302 304 304 306 305 308 310 314 315 315 320 322 322 321 320 320 320 320 323 323 322 323 323 323 321 319 315 312 310 310 311 307 303
299 301 300 299 299 300 300 301 300 300 301 302 303 303 304 306 307 308 311 314 314 315 318 321 320 322 324 319 319 321 323 313 315 320 319 319 320 319 316 313 311 310 312 318
293 295 296 297 298 298 298 299 300 300 300 300 301 302 303 303 304 305 308 311 315 316 313 317 320 317 316 316 318 320 321 317 314 320 318 319 318 320 320 318 315 312 313 312
298 298 298 300 298 298 298 299 298 298 298 300 301 301 301 301 301 303 306 309 310 309 309 310 314 315 313 309 311 316 319 318 318 319 318 317 317 317 319 320 318 316 313 311
299 299 299 299 298 299 299 297 297 298 298 300 299 299 300 301 301 303 306 303 304 302 303 308 303 310 312 306 308 317 317 317 318 318 318 310 311 316 315 317 320 320 318 314
300 300 300 300 300 301 301 298 298 298 298 299 299 299 298 299 301 302 303 300 300 299 300 303 309 307 309 308 303 315 321 318 316 315 315 314 314 311 313 306 315 320 320 318
299 302 301 300 298 300 301 299 298 297 298 298 296 296 296 298 298 299 296 296 298 297 296 300 305 305 306 302 310 313 312 320 321 316 314 313 313 313 313 313 313 314 319 320
298 300 301 300 298 298 299 298 298 298 298 297 296 296 294 293 294 296 298 295 296 292 297 301 298 294 298 300 313 314 312 316 318 321 321 316 313 313 313 314 313 314 315 316
299 301 300 300 298 298 298 299 298 298 297 296 295 295 294 292 294 292 291 294 294 291 297 296 290 289 290 304 306 308 312 313 314 315 320 320 321 320 317 313 314 315 313 313
299 299 299 301 299 298 296 296 297 297 297 297 296 296 294 292 292 294 294 292 289 290 292 290 290 288 291 299 300 301 305 304 305 312 316 306 322 322 321 320 319 316 314 309
300 300 297 298 297 296 296 296 296 295 295 294 294 295 295 295 292 292 293 292 289 290 290 288 288 288 293 294 295 295 297 296 297 303 305 308 309 313 315 319 322 320 319 317
298 299 297 297 296 296 295 295 293 293 293 292 293 293 293 294 293 292 292 290 290 289 289 289 288 288 289 290 290 292 292 293 294 295 296 298 300 303 306 307 308 314 317 318
300 297 297 296 296 296 296 294 292 291 292 291 290 291 291 292 292 291 290 290 289 289 289 288 288 287 288 288 288 289 290 291 290 291 292 293 295 296 299 302 304 306 309 310

GFSNGP_sfc_thetae_027.txt.gz
Theta_e
285 286 287 286 286 288 286 287 283 286 287 292 294 297 299 310 313 316 318 319 320 320 321 322 321 322 322 320 321 323 322 321 320 323 321 320 320 318 319 319 323 326 326 322
283 287 287 286 287 288 289 289 288 289 288 297 299 307 309 311 315 316 317 319 320 321 322 322 321 321 321 320 320 323 322 325 325 325 321 319 319 319 319 320 323 325 321 320
278 285 285 282 286 288 289 290 289 285 292 298 298 302 310 311 316 317 318 319 320 321 322 322 322 322 318 319 319 322 326 326 326 323 321 321 320 318 317 321 323 323 318 316
279 283 274 287 296 296 292 291 292 293 295 302 302 303 313 313 313 317 319 319 320 321 322 321 321 320 317 318 320 324 326 326 324 322 321 320 320 317 318 320 323 319 314 314
278 279 284 289 293 292 291 291 301 302 303 306 307 309 310 317 317 317 319 320 321 322 322 321 318 317 317 318 320 323 326 324 323 321 319 319 316 316 316 316 316 315 315 314
281 278 277 289 293 296 296 287 301 303 303 303 305 301 305 317 318 317 318 319 320 322 322 321 317 316 317 318 320 320 324 324 322 320 319 319 318 317 317 317 317 319 316 315
280 279 285 291 293 296 287 288 301 304 302 303 302 305 310 316 317 319 317 318 320 321 319 319 315 316 316 317 318 321 324 326 321 320 320 320 319 318 319 318 320 318 316 314
283 281 280 293 290 292 297 301 303 302 302 304 307 309 312 315 317 318 316 319 321 320 318 314 317 317 313 315 319 321 323 322 320 319 322 321 319 319 320 318 317 315 314 314
285 284 289 292 292 295 303 301 303 303 304 306 307 307 309 311 315 317 320 320 321 319 315 315 317 317 313 315 316 320 320 319 318 320 321 320 319 318 318 317 316 315 316 316
287 291 290 295 301 302 304 303 305 306 309 307 305 307 307 309 311 314 320 319 318 316 315 313 314 315 316 313 318 320 319 318 319 320 318 319 320 319 318 316 316 316 316 315
288 293 296 299 301 302 303 304 306 308 308 305 306 306 308 309 311 312 314 319 317 317 315 315 315 314 313 315 320 319 320 320 320 319 319 318 316 316 319 318 317 318 316 315
287 295 295 297 301 303 303 302 304 304 305 306 307 306 307 309 311 311 312 315 318 317 316 316 316 315 313 318 320 320 319 320 319 319 318 317 313 310 298 300 301 305 305 312
294 298 299 300 302 304 303 303 304 303 304 303 305 306 307 308 310 310 313 315 316 318 319 318 316 315 315 319 321 321 321 320 319 318 318 314 312 312 312 305 296 298 298 302
298 298 297 298 297 303 304 304 303 304 304 303 304 305 307 307 308 309 311 314 318 321 321 320 319 316 317 320 321 321 321 309 321 320 319 315 313 312 311 310 311 312 297 301
298 299 298 299 300 300 301 302 300 299 300 301 302 302 303 303 304 306 311 314 314 315 319 320 320 319 319 318 320 319 319 320 322 322 321 317 314 311 310 310 312 312 307 301
297 299 298 298 298 298 297 298 297 298 298 299 300 300 302 303 304 307 309 312 309 308 309 313 313 315 324 318 319 320 319 311 315 322 319 318 315 312 310 309 309 311 311 312
294 295 297 297 296 296 297 297 297 297 298 297 298 300 301 302 303 304 304 307 310 307 307 308 307 313 313 314 317 319 320 317 312 321 319 320 319 316 314 311 310 309 311 311
298 296 296 297 297 297 296 296 297 297 297 298 299 300 299 300 300 302 301 302 303 304 304 307 308 310 312 310 309 315 318 319 317 319 320 320 319 319 318 315 313 312 310 308
298 297 298 298 298 298 296 296 295 296 296 297 299 298 298 298 300 300 298 298 297 298 299 304 302 307 309 307 305 317 315 316 317 318 318 311 313 316 318 318 317 316 314 309
299 298 299 298 299 298 296 296 296 296 296 296 295 296 296 297 298 297 297 294 294 295 298 300 305 305 310 308 302 315 319 319 314 314 314 313 313 314 314 308 317 318 317 314
298 299 299 297 297 297 297 297 296 295 295 295 293 292 293 296 296 293 292 290 292 294 296 295 296 296 304 305 312 314 314 316 316 318 312 311 311 311 311 311 313 317 318 318
298 299 299 297 296 295 296 296 296 295 294 294 294 293 292 292 294 292 292 290 291 290 293 293 292 288 293 296 309 312 311 312 314 316 318 319 314 312 310 310 310 311 312 317
297 299 298 297 296 296 297 297 296 295 293 293 292 291 290 291 291 290 288 290 290 289 289 289 287 287 288 298 299 300 300 303 306 308 310 315 318 318 318 318 318 318 313 310
299 297 297 298 297 295 294 294 295 294 294 293 292 292 291 289 289 291 291 289 287 288 287 286 286 287 289 293 294 294 294 295 297 300 302 297 305 309 308 309 310 313 315 313
297 297 297 296 295 293 293 294 293 292 292 291 291 292 292 292 289 289 289 289 287 288 288 287 286 287 289 290 291 292 292 292 292 293 294 296 296 299 303 305 306 307 309 309
297 295 296 296 295 295 293 292 291 291 290 290 289 290 291 291 290 290 289 288 288 287 287 288 288 289 289 288 289 290 290 290 290 291 292 293 293 294 295 297 299 302 305 304
296 295 296 293 294 294 293 292 291 289 289 288 288 288 289 290 289 288 288 287 288 288 288 288 288 287 288 288 288 289 289 289 288 289 290 291 291 291 292 293 293 295 296 296

GFSNGP_sfc_thetae_030.txt.gz
Theta_e
283 285 286 285 285 286 284 286 282 284 285 290 292 294 297 303 307 315 317 320 320 320 320 320 320 321 322 322 322 322 322 321 320 320 321 321 321 320 320 321 323 326 327 324
282 285 286 284 285 285 286 286 286 288 287 294 296 297 298 304 311 315 317 319 320 321 321 320 321 321 321 321 321 322 322 321 323 324 321 321 321 320 321 323 326 326 323 322
276 284 283 278 282 284 285 289 288 284 289 294 295 298 300 307 312 315 318 320 320 321 322 322 321 322 320 320 321 322 324 325 325 323 321 321 321 321 319 322 325 324 320 319
276 277 269 282 291 293 289 290 291 291 293 296 298 303 307 309 312 316 319 320 320 321 322 322 321 320 320 319 321 323 324 325 324 323 321 321 320 319 321 324 324 322 318 317
274 275 282 285 291 291 289 289 295 292 294 297 305 307 308 315 316 316 318 320 321 322 321 320 320 319 319 318 321 324 325 324 324 322 321 320 319 317 319 321 320 319 318 317
280 276 274 286 292 295 295 285 301 302 302 303 303 299 305 314 316 316 318 319 320 321 320 319 318 318 318 318 320 322 325 324 324 322 320 320 318 318 320 320 320 320 317 318
280 278 281 291 292 293 285 286 301 302 301 302 300 305 308 316 317 319 319 319 320 320 320 320 316 318 317 318 319 323 326 325 323 321 320 321 319 321 321 321 321 319 317 318
282 279 277 291 289 288 295 301 302 303 304 302 303 307 312 314 316 318 319 319 321 320 318 317 317 318 316 318 321 323 326 323 321 320 322 322 320 321 322 321 319 317 316 316
284 284 290 291 290 294 295 295 303 303 305 305 305 306 308 311 316 317 319 319 321 321 317 315 317 319 316 318 320 322 322 321 320 321 322 321 321 320 320 321 319 317 318 317
285 289 290 293 295 302 303 303 305 306 308 306 304 307 308 310 310 312 319 320 320 318 316 314 317 317 319 316 320 321 320 320 320 320 320 321 322 322 321 319 319 317 317 317
288 292 294 294 298 301 302 304 303 304 306 306 305 306 308 309 310 312 314 319 318 317 317 316 316 316 315 317 321 320 320 320 320 320 321 320 319 319 321 321 319 320 319 318
288 295 294 296 300 303 299 302 303 303 303 305 306 306 308 308 310 313 314 317 317 317 316 316 316 315 314 319 321 320 319 320 320 320 320 320 317 312 296 301 303 304 302 313
294 298 299 300 302 304 301 302 303 302 303 302 305 306 306 307 309 310 315 318 319 319 318 317 316 315 315 320 321 320 320 320 320 318 320 318 317 318 317 307 296 298 296 300
299 298 296 298 297 301 302 302 303 302 302 302 302 304 305 307 309 311 310 311 315 320 319 319 318 316 317 321 321 321 321 307 321 321 321 318 318 318 318 316 316 315 299 300
297 299 297 299 298 298 299 300 299 298 299 300 302 303 304 304 306 308 311 310 311 310 310 314 316 316 319 322 321 321 321 320 322 322 321 317 317 316 315 315 316 315 311 303
297 297 297 297 296 296 296 297 297 297 298 299 300 301 303 304 303 304 306 308 306 304 308 308 309 313 314 320 321 321 321 310 314 322 320 319 317 316 314 314 314 316 317 317
293 292 294 295 295 294 295 296 296 297 298 298 299 301 302 302 300 300 301 303 305 304 305 306 305 311 314 310 319 321 320 318 312 323 321 321 319 317 317 315 314 314 317 312
297 295 295 295 296 294 294 295 295 295 296 298 299 299 299 299 297 296 298 300 302 302 301 304 303 307 314 311 314 318 320 319 320 322 322 322 321 321 318 317 315 315 314 310
297 296 296 298 297 295 295 294 295 295 295 296 297 296 298 297 296 296 296 295 295 295 296 299 297 304 311 308 311 320 317 319 319 320 321 313 318 321 320 319 318 317 316 312
298 298 298 297 297 296 295 295 294 294 294 294 295 296 294 293 294 293 294 291 292 292 295 296 299 300 306 308 304 317 317 318 317 317 318 318 318 319 320 311 320 320 319 316
297 298 297 296 295 295 295 295 294 292 293 293 293 293 293 293 291 291 290 289 290 291 292 291 293 294 301 302 308 310 314 316 317 318 318 314 315 315 316 317 318 320 320 320
298 297 296 296 295 295 295 294 294 293 292 291 291 291 291 291 292 290 289 288 289 287 290 290 290 288 293 295 300 302 305 306 308 308 311 313 315 316 316 317 317 317 316 315
297 298 296 296 295 294 295 294 293 292 291 290 290 290 289 289 289 288 286 289 289 287 289 289 286 287 288 295 296 296 297 298 299 300 301 306 308 307 307 306 310 310 310 311
296 296 296 296 296 294 292 292 292 292 291 291 291 290 289 288 288 290 289 288 287 287 288 287 287 287 289 293 293 292 292 293 294 295 296 293 299 300 303 304 304 306 306 304
297 296 295 294 293 292 292 292 291 291 290 290 290 290 290 290 288 288 289 288 287 288 289 287 287 287 291 291 291 290 290 291 291 293 293 293 294 294 295 296 298 299 300 300
296 295 295 295 294 293 292 291 289 289 289 288 289 289 289 289 289 288 288 288 288 288 288 288 288 289 289 289 289 289 289 289 290 290 290 291 291 292 292 293 293 293 293 294
295 293 294 293 294 293 292 291 289 288 288 288 288 288 288 287 287 288 288 288 287 286 287 287 287 287 288 288 288 288 288 288 287 289 289 289 290 290 290 291 291 291 291 291

GFSNGP_sfc_thetae_033.txt.gz
Theta_e
287 288 288 287 286 288 286 288 284 288 289 293 296 299 300 304 305 307 317 321 322 323 327 330 330 330 330 330 330 331 329 329 331 332 333 332 331 331 331 332 331 331 332 332
283 287 287 284 287 288 288 288 288 289 289 297 299 301 301 302 303 306 315 321 323 324 327 329 329 329 329 329 329 330 329 329 330 331 331 331 331 330 330 330 333 331 332 330
280 285 285 281 286 287 288 290 290 286 291 295 297 299 302 305 308 309 315 323 324 326 329 330 329 330 329 329 330 330 329 329 330 330 329 330 329 329 329 331 331 328 331 329
281 283 274 286 293 293 291 294 296 294 294 296 297 301 304 307 309 312 320 324 328 330 330 331 331 330 331 330 329 329 329 329 329 329 328 329 328 328 331 331 330 327 330 329
279 279 283 286 291 290 289 289 297 294 296 298 299 302 306 310 316 321 324 328 330 331 331 331 330 331 330 328 329 329 330 330 330 329 328 328 328 330 332 332 327 328 329 328
282 277 276 288 293 294 294 286 299 299 297 298 300 298 303 316 322 324 328 329 330 331 331 331 331 331 328 327 328 328 330 330 330 329 328 328 329 330 332 334 331 329 327 329
280 279 284 291 293 294 284 290 299 302 304 305 301 305 314 318 322 326 328 329 331 330 330 331 330 330 328 328 328 330 332 331 330 329 329 330 330 330 331 331 330 329 327 329
283 280 279 290 289 287 293 295 296 298 306 306 308 309 312 316 322 324 325 327 330 329 330 331 330 329 327 328 330 330 332 331 329 330 327 329 330 330 331 332 330 328 327 323
285 285 291 292 287 291 293 291 294 298 307 309 311 312 314 318 321 323 323 326 328 329 329 329 329 330 327 330 330 330 332 329 330 329 329 331 330 331 330 330 328 325 325 322
285 290 291 295 296 300 303 301 304 306 307 309 309 311 314 316 320 322 323 325 327 326 327 327 329 329 330 330 330 330 331 328 330 329 328 330 330 331 330 329 327 324 323 321
288 292 294 296 297 300 301 303 303 306 305 306 311 312 313 316 317 319 320 324 327 325 327 328 329 328 330 329 330 330 330 326 330 329 329 330 330 329 331 332 327 327 325 324
287 294 294 295 300 301 300 301 302 301 301 302 306 310 314 315 317 319 320 323 324 325 327 328 327 328 328 329 330 331 330 328 328 329 329 329 327 324 296 301 300 301 304 317
296 301 300 299 300 303 300 301 302 300 302 300 304 308 312 314 315 312 317 320 322 324 326 327 326 326 328 328 329 330 330 330 329 326 329 328 328 328 325 311 295 295 296 299
302 301 296 297 296 299 301 301 302 301 301 301 303 308 310 311 311 312 312 315 322 323 324 325 324 325 326 327 329 330 332 310 330 329 329 329 328 328 328 327 323 326 300 301
300 301 300 299 299 298 301 301 299 298 299 300 303 306 309 308 306 308 312 315 315 318 320 321 321 321 324 327 328 328 329 328 330 330 330 326 329 327 327 326 326 326 317 305
299 300 300 298 297 297 298 298 298 297 298 300 301 304 305 305 306 307 310 312 309 309 313 314 316 319 322 326 328 328 329 313 318 330 329 329 328 326 325 325 325 325 328 326
297 296 297 296 295 295 296 297 297 297 298 299 300 302 304 304 303 304 306 309 307 304 306 308 311 319 320 324 327 326 328 328 313 329 329 329 329 327 326 324 324 326 328 324
301 300 299 297 295 295 295 296 297 297 296 300 300 300 300 301 299 298 300 302 305 303 300 303 303 314 320 318 325 327 327 327 328 328 329 329 329 329 328 327 326 325 326 318
302 300 299 298 297 296 295 295 296 295 297 298 297 296 296 297 297 297 296 295 295 295 297 301 298 307 311 309 318 326 327 326 327 328 329 318 327 330 329 329 329 328 327 322
301 301 300 299 298 296 295 295 295 295 295 296 297 295 293 293 295 297 298 292 291 292 296 297 301 305 307 306 304 324 325 325 325 326 327 328 330 330 330 315 327 330 329 327
301 301 300 299 297 296 295 296 295 293 293 294 294 293 294 293 292 292 294 293 291 292 295 295 297 300 303 304 305 309 315 317 320 322 321 322 322 322 323 324 324 325 327 328
302 301 300 299 297 296 296 296 295 294 293 292 292 292 292 291 292 290 290 289 291 288 293 294 294 289 297 295 301 302 302 304 309 311 311 311 310 310 311 311 312 313 315 318
303 302 301 300 298 296 296 296 295 294 293 293 291 290 289 289 289 289 287 289 290 289 292 291 287 287 289 300 297 297 298 298 299 299 301 304 304 304 304 304 305 304 304 306
304 302 302 301 300 297 295 295 295 295 294 293 293 293 293 289 288 290 290 289 287 289 289 289 289 287 291 295 295 294 293 294 294 295 296 293 297 297 297 297 298 299 299 299
304 303 302 301 299 297 297 296 296 295 294 294 293 293 293 292 289 290 291 290 287 289 291 287 287 288 294 293 293 293 292 291 292 292 293 294 294 294 294 293 293 294 294 294
304 302 303 302 301 299 297 297 295 295 295 293 293 293 293 293 293 292 291 290 291 289 291 291 292 292 292 292 292 292 292 293 293 292 292 292 292 293 292 293 293 293 293 293
304 299 302 300 301 299 298 297 296 295 295 295 293 293 293 293 292 292 289 290 291 291 291 291 291 290 291 292 292 292 293 291 290 293 293 292 292 292 293 293 293 293 294 293

GFSNGP_sfc_thetae_036.txt.gz
Theta_e
290 291 291 289 289 290 289 290 287 289 291 297 300 302 304 306 306 307 309 320 324 326 329 331 332 335 336 335 335 335 333 333 334 336 337 336 335 335 335 335 334 333 334 334
287 290 290 288 290 290 290 291 291 292 291 299 301 302 302 303 305 306 309 314 325 326 328 329 331 333 334 333 332 331 330 331 334 335 335 334 334 334 334 333 333 333 333 333
284 289 288 285 289 290 291 292 292 289 294 299 298 299 301 303 305 307 309 314 326 326 330 332 331 332 333 331 329 330 330 331 332 333 333 333 332 332 332 333 335 334 334 333
285 285 277 289 294 294 293 294 296 296 297 300 300 301 303 305 306 308 311 316 328 329 332 333 332 334 333 329 329 329 330 330 331 331 331 331 331 331 333 334 335 335 334 334
282 283 286 288 293 292 289 292 299 299 300 302 303 303 303 306 309 312 316 324 331 333 334 333 333 334 330 327 329 329 329 330 330 330 330 329 329 332 333 334 333 334 334 334
285 279 277 288 294 296 296 287 301 301 301 302 301 295 300 311 323 326 329 331 331 333 335 335 334 333 328 328 328 329 329 329 330 330 330 330 331 332 334 333 332 331 333 335
283 281 285 292 294 294 284 291 301 302 301 305 301 303 309 314 317 323 330 332 333 335 333 334 334 332 326 328 328 329 330 331 331 331 330 331 332 334 334 333 333 333 332 333
286 283 280 293 290 287 296 299 298 300 300 303 309 311 312 314 319 321 329 332 332 332 332 333 333 329 326 328 330 331 332 331 331 331 330 330 333 333 334 335 333 333 332 328
286 286 294 296 291 292 293 291 297 300 301 305 310 312 314 318 321 325 329 331 333 332 331 332 331 328 328 331 331 332 332 331 331 331 331 332 333 333 334 336 335 331 330 328
286 293 293 296 298 298 301 302 302 302 303 310 311 314 316 321 322 325 329 329 332 330 328 327 328 328 330 332 332 332 332 331 331 331 331 332 332 335 336 335 331 329 328 327
290 295 297 296 298 298 301 303 303 305 306 308 311 314 317 319 323 326 327 331 331 328 326 326 327 329 331 332 332 331 332 331 331 331 332 331 334 332 336 336 326 330 331 329
290 297 295 295 299 298 298 301 302 301 303 305 309 313 317 321 325 326 327 328 332 329 327 324 325 328 330 331 332 333 331 330 328 329 330 330 330 329 298 299 298 299 300 316
297 301 300 299 299 299 298 301 302 301 302 303 308 312 315 317 321 317 325 325 328 331 331 329 325 326 329 330 332 333 330 332 330 326 328 328 329 331 328 314 296 295 297 297
302 301 297 298 296 300 300 301 302 302 303 303 308 311 314 315 317 319 322 327 328 329 331 332 331 328 328 329 331 332 333 313 330 329 329 327 329 330 328 330 328 327 300 301
301 302 300 299 299 299 299 301 300 299 301 303 305 306 309 310 312 315 318 323 324 325 326 330 330 331 331 328 330 330 332 330 329 329 330 325 327 328 327 327 329 330 324 308
301 301 300 298 297 299 297 298 299 298 301 301 302 304 307 310 311 312 313 313 312 314 318 321 323 326 330 329 330 330 330 312 318 330 331 330 327 327 328 328 328 331 330 327
298 296 297 297 297 298 297 296 299 299 299 300 301 304 304 305 305 307 309 309 307 308 310 312 313 322 326 331 330 328 328 331 313 330 330 329 329 326 325 326 327 328 330 325
303 302 300 299 298 298 297 297 297 298 299 299 300 301 302 299 300 300 302 306 303 302 302 305 307 316 322 324 329 328 328 329 329 328 329 329 330 330 328 326 325 326 329 321
303 301 300 299 299 299 299 299 296 297 299 298 299 297 300 301 298 296 297 298 299 296 297 303 300 310 315 308 313 330 328 327 327 328 329 320 331 330 330 329 327 327 328 326
303 302 301 300 299 299 298 299 298 295 297 297 297 296 296 299 301 299 296 293 294 296 300 299 304 305 309 309 305 330 330 329 329 329 329 329 330 331 331 317 330 328 329 329
303 302 302 300 299 299 299 298 299 296 297 297 295 294 295 297 296 299 300 294 292 296 297 296 297 301 303 304 308 309 319 328 328 328 328 328 328 329 330 331 331 332 331 333
304 303 302 301 299 298 298 299 298 297 295 295 296 296 295 295 295 293 292 292 293 290 295 297 297 289 295 297 304 303 303 306 311 315 315 315 315 315 315 315 316 317 319 321
305 304 304 302 299 299 299 299 298 297 296 294 293 292 291 290 292 291 288 290 292 290 295 295 288 287 289 296 298 300 299 298 297 299 301 304 304 304 302 302 302 303 304 304
306 306 305 304 301 300 298 298 298 298 297 296 296 295 294 291 290 292 291 290 288 291 292 292 292 287 293 296 294 295 295 296 296 295 295 293 296 297 296 296 297 297 296 296
307 307 306 305 301 299 300 300 299 299 298 298 297 297 295 295 294 293 293 293 289 294 296 288 287 290 299 298 296 295 293 293 293 293 293 294 295 295 294 293 293 294 295 295
308 307 307 307 303 301 301 301 299 300 298 297 298 298 298 296 295 294 295 294 297 294 296 297 299 300 300 298 298 298 297 296 295 294 293 293 293 293 294 294 294 295 294 294
309 303 307 306 304 302 302 300 300 299 299 298 297 298 298 297 295 295 293 297 297 297 297 298 298 296 298 298 298 298 297 296 294 297 297 297 297 295 293 293 293 294 293 293

GFSNGP_sfc_thetae_042.txt.gz
Theta_e
290 290 291 290 289 291 289 290 286 287 288 292 296 296 297 300 303 306 308 321 326 330 334 334 333 335 337 338 339 339 338 339 340 342 342 341 340 339 337 337 333 334 333 333
288 291 290 289 290 291 291 290 290 290 289 296 299 300 300 302 304 305 306 312 326 328 331 329 332 332 334 335 335 339 337 338 339 338 338 338 338 332 331 334 334 332 332 332
284 289 289 285 290 291 292 293 292 287 293 298 297 298 302 303 304 305 306 309 323 327 330 333 332 332 331 335 336 335 334 333 333 333 331 331 333 332 332 334 335 333 333 333
285 287 278 290 297 296 293 295 296 296 297 299 300 302 302 304 305 306 307 309 321 330 332 334 333 331 332 333 332 331 330 329 331 331 331 331 331 331 331 335 336 335 334 334
283 283 287 290 294 292 290 290 296 298 300 301 302 304 305 308 308 309 311 323 325 332 333 334 333 330 331 329 329 328 328 330 330 330 330 330 331 331 333 335 334 334 334 333
285 280 278 289 293 296 297 286 298 299 299 301 304 296 301 312 315 315 320 321 327 331 333 336 331 329 329 328 328 327 329 329 331 330 329 330 332 331 334 334 334 333 333 333
284 283 287 292 295 295 283 288 297 297 298 299 299 302 309 313 313 317 320 323 325 330 330 334 333 331 329 328 327 330 331 330 331 329 331 332 332 334 335 333 333 332 332 330
287 283 281 297 293 287 293 295 295 296 297 298 301 305 309 311 314 319 321 323 327 328 332 334 331 330 328 329 331 331 330 329 330 331 327 332 332 331 335 335 332 330 328 326
288 288 297 298 295 297 298 294 294 296 303 302 303 305 309 311 317 320 322 325 329 329 333 331 330 330 331 331 332 331 331 330 330 332 328 333 329 330 334 333 331 330 329 325
291 294 296 297 299 300 298 296 299 302 306 306 307 309 310 312 318 320 324 323 329 332 328 327 329 332 332 332 332 331 330 329 331 329 331 331 331 335 332 331 331 330 328 325
293 296 297 297 298 298 298 300 300 302 304 306 306 308 310 313 318 321 324 326 330 328 326 328 328 331 331 331 331 329 330 329 329 329 331 328 319 318 326 314 318 331 329 326
290 297 294 295 299 301 298 298 300 301 302 304 306 307 312 314 319 321 324 326 327 328 327 326 327 331 331 332 331 330 330 327 327 329 330 331 326 319 297 297 295 297 309 322
297 301 299 299 300 300 298 299 301 301 303 302 306 309 314 316 320 318 324 322 322 325 326 325 327 330 329 330 332 330 329 326 328 328 329 330 328 326 320 311 297 295 298 304
302 300 297 298 297 301 299 300 302 302 303 302 305 310 314 317 318 320 316 320 322 324 325 326 329 329 332 330 329 332 328 314 328 327 329 328 328 326 326 324 323 320 300 301
300 299 297 299 300 300 299 299 298 298 300 299 305 308 310 311 312 318 320 324 325 324 324 326 327 329 329 330 330 330 328 325 325 330 329 326 328 328 328 328 325 319 314 304
300 298 298 298 298 299 298 298 297 297 299 298 300 305 303 306 310 312 314 315 316 316 320 323 325 330 330 330 330 329 326 311 316 329 328 325 329 327 327 328 325 324 322 316
297 295 295 296 297 298 296 297 297 297 298 297 300 303 303 303 306 307 309 310 309 309 312 313 316 325 328 330 333 330 326 321 316 328 326 328 326 327 330 328 326 327 325 318
301 299 299 299 298 299 296 296 297 297 297 297 298 300 300 298 298 301 305 308 308 305 303 309 310 317 327 320 324 329 326 327 327 325 325 327 328 329 329 329 326 326 326 316
301 298 299 299 300 300 298 296 297 296 297 297 296 296 298 298 298 298 300 300 301 300 300 303 300 313 321 313 316 328 326 325 326 325 326 318 326 327 328 329 327 326 326 323
301 299 300 299 300 301 299 297 298 296 297 297 297 295 293 293 298 297 297 296 296 297 300 299 306 309 314 316 309 321 323 326 324 324 325 326 327 328 324 315 323 325 328 328
302 300 299 299 299 300 300 299 297 294 295 295 294 294 292 292 293 295 295 293 295 297 296 296 299 303 308 309 314 317 313 319 326 323 324 327 327 323 321 323 320 321 321 323
303 300 299 299 300 299 300 300 298 296 294 293 293 292 292 294 293 293 294 294 296 291 296 295 295 291 298 298 308 311 309 308 308 310 315 314 312 311 310 311 310 308 309 310
304 302 301 300 299 300 300 300 299 298 296 295 292 291 291 292 292 292 292 295 296 292 294 294 288 288 289 301 301 301 302 303 303 303 303 303 305 305 304 302 301 301 300 300
305 304 302 302 302 301 300 300 300 299 298 297 297 296 295 293 294 296 296 293 290 292 292 291 290 289 292 298 298 298 299 299 299 299 298 294 298 299 299 298 298 297 297 296
306 306 304 302 301 301 301 301 301 300 299 298 298 298 297 297 296 298 298 297 291 296 296 289 289 290 296 295 294 294 294 296 297 298 297 296 295 295 296 295 295 294 294 294
307 305 306 305 303 302 302 301 299 300 299 298 298 299 298 298 298 299 299 296 298 295 296 297 298 297 297 295 295 294 294 293 293 293 293 294 294 294 294 295 294 294 293 292
308 303 306 303 302 303 302 301 300 299 300 299 297 298 299 299 299 298 295 298 297 297 298 298 297 295 297 296 296 296 295 295 293 294 294 293 293 292 292 292 291 292 292 291

GFSNGP_sfc_thetae_045.txt.gz
Theta_e
288 290 290 288 288 289 286 287 283 286 287 290 294 296 298 300 301 301 301 301 305 312 322 326 331 334 336 336 338 339 336 337 336 336 336 336 335 333 331 327 327 328 329 329
285 290 290 288 289 289 290 290 289 290 289 296 297 298 297 299 299 299 301 303 309 322 324 328 328 333 335 336 336 338 336 335 336 334 333 331 328 330 328 327 327 328 327 326
279 289 288 281 288 290 291 292 290 286 291 297 297 297 296 297 299 299 301 303 309 323 325 324 326 332 332 335 336 335 334 334 334 332 330 330 326 327 327 327 327 329 328 325
281 284 275 287 295 294 291 292 294 293 295 298 299 302 304 303 303 303 303 313 319 323 324 326 328 331 333 334 333 332 330 329 327 329 326 325 327 326 327 327 327 329 328 324
278 277 285 289 291 290 288 287 295 293 295 297 298 300 302 306 307 309 311 314 316 324 320 317 323 330 328 327 327 326 325 326 326 326 325 327 326 326 327 326 323 324 325 321
282 277 272 287 293 296 293 283 295 293 292 293 295 289 296 303 305 309 312 316 319 323 325 323 327 327 325 323 323 323 325 327 327 329 327 327 327 328 327 324 325 327 326 322
283 280 284 291 295 295 280 285 293 293 293 293 291 294 298 302 304 310 311 316 322 323 323 329 325 325 322 321 320 326 327 327 326 326 327 327 328 327 324 324 325 325 322 320
285 281 276 295 293 287 292 295 295 295 295 295 297 297 299 301 305 309 313 318 322 321 324 327 324 324 321 322 325 326 326 326 326 327 328 328 327 325 325 324 324 323 322 323
286 285 295 296 295 298 297 296 296 296 297 299 300 301 301 302 307 310 315 321 324 324 326 328 325 325 323 325 325 324 325 325 325 325 326 326 322 325 322 324 324 321 321 320
288 292 294 297 298 297 299 297 298 299 300 302 301 304 306 307 308 311 316 321 324 326 323 324 326 325 326 327 327 325 324 326 325 327 326 324 325 324 322 323 323 323 320 318
291 293 295 297 296 298 299 299 298 300 302 301 302 302 304 305 308 313 317 322 324 325 326 324 326 325 326 327 326 325 325 325 324 325 319 315 312 314 321 317 319 325 321 320
287 294 294 293 297 300 298 297 299 300 300 303 303 303 306 307 311 315 318 323 324 326 324 326 326 327 326 327 327 325 323 324 326 326 322 318 316 312 296 296 296 301 309 317
294 298 297 296 298 300 298 298 300 300 301 300 302 304 308 312 316 318 323 322 319 323 325 325 325 325 326 327 326 323 322 321 323 324 323 320 318 317 313 306 297 295 297 301
297 296 294 295 294 299 299 299 301 300 301 300 301 307 309 311 315 317 317 318 319 320 321 324 326 325 326 327 326 324 323 313 324 324 325 323 320 319 320 319 316 311 298 298
296 297 296 297 299 298 298 299 297 297 299 298 302 304 305 308 309 310 312 314 316 319 321 326 326 326 326 327 326 324 323 323 325 326 324 322 323 320 321 319 313 310 309 302
297 296 296 296 298 297 296 297 295 296 297 297 301 302 302 303 304 307 310 309 308 308 313 320 321 327 326 323 323 321 322 312 318 322 322 322 323 323 320 317 315 317 316 311
293 292 294 294 297 296 295 297 296 296 296 297 298 300 301 301 301 302 304 308 305 304 307 309 311 325 323 320 322 320 325 324 314 323 321 324 325 323 322 321 319 317 315 313
296 295 296 295 297 296 295 296 296 296 296 297 296 297 299 298 297 299 300 301 305 304 302 304 306 318 321 315 317 321 322 323 321 324 324 322 322 324 323 322 322 318 317 310
297 296 297 298 298 297 296 296 295 296 296 297 295 293 295 297 298 298 298 297 297 297 297 299 298 308 313 307 317 322 322 321 324 324 322 315 321 323 323 322 322 320 318 315
297 297 298 298 299 297 296 297 295 295 295 295 295 293 292 293 295 296 298 294 295 296 297 299 302 306 308 309 308 320 324 324 324 324 322 322 321 320 318 313 321 321 321 323
297 298 298 298 297 299 297 296 295 293 293 294 293 293 293 294 294 294 294 292 293 295 296 297 298 303 305 306 309 311 312 319 320 317 317 316 315 315 314 317 321 320 317 313
298 297 298 298 298 297 298 297 296 295 294 293 293 293 292 292 295 294 295 293 294 291 295 296 296 290 297 299 305 304 306 305 308 311 308 306 306 305 303 303 304 303 303 302
299 299 299 299 297 297 297 297 296 296 294 293 293 293 293 293 294 292 291 293 294 292 294 293 289 289 292 301 302 301 300 300 300 300 301 301 299 298 297 296 295 295 295 295
301 300 299 300 300 299 295 296 296 297 296 296 296 296 295 294 294 296 295 292 291 292 292 291 290 289 292 298 299 298 298 297 296 297 298 295 297 297 296 295 294 293 293 292
303 301 300 300 299 297 298 297 296 296 297 296 296 296 297 297 295 296 297 295 291 295 296 290 289 290 294 294 294 295 296 296 295 295 295 294 293 292 292 292 291 291 291 290
303 302 299 299 298 297 297 297 296 296 295 295 295 295 296 297 297 297 296 294 296 294 295 296 296 295 295 294 294 294 293 293 293 293 293 293 293 293 292 292 291 291 290 290
305 300 299 297 298 298 297 296 296 295 295 295 294 296 297 296 295 296 293 296 296 296 296 296 296 294 295 295 294 294 294 293 292 293 292 292 291 291 291 290 290 290 290 289

GFSNGP_sfc_thetae_048.txt.gz
Theta_e
288 289 289 288 287 288 286 285 281 284 285 289 291 294 295 297 299 299 300 301 302 302 303 305 308 321 329 334 337 338 336 335 333 334 334 334 333 334 334 334 332 329 326 326
286 289 288 286 288 289 289 288 288 288 286 294 295 296 296 297 298 298 300 302 303 303 306 315 315 326 325 332 333 336 334 333 334 333 334 333 332 329 327 326 325 326 323 323
280 287 287 282 288 289 290 292 289 284 288 293 294 295 296 297 300 304 306 309 311 316 320 322 325 322 319 329 334 333 333 334 334 333 331 330 328 326 323 322 322 322 323 322
281 282 276 287 294 292 289 291 291 291 292 292 292 294 296 299 303 301 302 306 311 317 318 319 321 321 321 329 333 333 333 333 332 331 329 325 326 324 322 325 326 324 322 320
280 277 283 288 291 290 288 287 293 291 291 292 293 294 294 303 301 299 301 306 312 319 319 320 319 321 322 325 332 332 330 331 331 328 325 323 322 324 325 327 327 324 320 316
283 277 272 285 293 295 293 283 294 292 292 292 293 285 291 297 299 300 302 306 312 318 322 320 319 320 318 328 327 326 326 325 324 325 324 323 325 325 326 325 323 322 319 316
282 280 283 291 295 295 279 283 294 293 294 293 291 294 297 300 301 302 303 308 316 320 322 321 323 325 325 324 323 325 325 324 324 325 326 327 326 326 325 323 323 320 318 316
284 281 275 294 291 285 291 294 294 294 296 294 296 298 300 303 303 302 304 311 315 319 320 322 321 324 320 322 324 325 325 325 324 324 326 327 326 325 324 322 320 318 319 317
286 284 294 294 291 295 297 295 296 296 297 297 297 299 302 302 304 306 309 312 316 321 322 320 322 325 321 323 325 324 323 323 324 324 324 326 324 321 322 322 320 319 318 316
288 292 292 294 297 298 297 297 299 298 297 298 298 301 301 302 303 305 308 310 317 321 317 319 324 325 323 324 326 324 322 323 323 322 321 322 323 323 323 321 320 319 318 316
288 293 294 296 297 296 298 299 298 298 299 300 301 301 302 303 305 307 309 313 319 322 323 323 324 324 325 325 325 323 321 323 322 322 319 314 308 311 320 318 320 320 318 318
289 296 293 293 294 298 297 298 298 298 299 301 301 301 302 303 307 310 313 317 320 322 322 323 326 324 325 326 325 323 322 322 320 317 317 315 312 307 295 297 300 303 306 314
296 296 296 294 296 298 298 298 299 299 300 299 300 301 303 306 312 316 322 320 319 319 320 322 325 324 325 324 324 324 322 322 320 318 317 315 315 315 311 303 297 296 299 299
296 295 293 295 293 298 298 298 300 300 300 300 300 303 305 308 310 310 313 317 317 318 318 322 325 323 324 324 322 321 321 314 321 320 318 316 316 316 317 318 315 310 297 297
295 296 295 295 298 298 298 298 296 296 297 297 300 301 302 303 306 307 309 310 310 311 313 321 322 322 325 323 321 320 322 322 323 322 320 317 318 318 316 316 313 309 307 300
296 295 294 294 296 297 296 296 294 295 296 296 297 299 301 303 304 304 305 307 304 302 308 316 321 320 323 322 322 321 322 310 317 322 320 319 319 317 315 315 315 316 314 310
291 291 292 294 296 295 295 295 295 295 296 296 295 298 299 300 300 301 301 303 303 304 305 305 310 321 321 318 319 321 320 319 311 323 321 321 320 317 316 316 316 316 315 311
295 294 294 296 295 295 295 296 295 295 294 296 296 295 296 297 297 298 299 300 301 305 303 305 305 311 316 315 318 324 325 321 322 322 323 323 321 319 318 317 316 315 315 304
295 295 297 297 297 296 296 295 294 294 295 295 294 293 294 295 297 297 298 298 299 300 298 302 299 307 312 309 314 321 321 321 321 321 322 314 321 321 320 318 317 316 316 312
295 296 297 298 298 297 295 295 294 294 294 294 295 294 293 294 296 296 297 294 295 297 299 300 303 307 309 308 308 321 322 322 319 318 321 321 322 321 319 310 317 317 318 316
296 296 296 297 297 297 296 296 295 293 293 293 293 292 293 295 294 294 295 293 294 295 296 297 300 298 303 304 315 318 318 316 315 315 315 315 319 320 319 319 318 315 313 309
296 295 296 296 296 296 297 297 296 294 294 294 294 294 293 293 294 293 293 292 294 290 295 297 299 292 296 297 307 309 307 308 306 306 305 305 307 307 306 306 304 302 301 301
296 296 297 296 295 295 295 296 296 296 295 295 294 294 293 293 293 292 290 293 293 291 294 294 290 290 292 302 302 302 302 302 300 299 298 298 299 299 297 298 297 296 296 295
297 296 296 297 297 295 293 295 296 296 295 296 296 296 295 294 294 296 296 293 291 290 291 291 290 289 292 300 300 299 301 299 296 295 295 294 295 294 295 295 294 293 292 291
300 297 297 296 295 293 294 294 294 296 295 295 295 296 296 296 295 295 296 295 291 293 294 289 289 290 295 295 296 297 297 296 295 294 292 293 291 291 291 292 292 291 291 291
304 297 295 296 295 295 294 294 292 293 294 293 294 295 296 296 297 297 296 294 295 293 294 294 295 295 294 294 293 294 294 295 294 293 292 291 290 290 290 290 290 290 290 290
303 299 303 294 294 293 294 293 292 292 293 293 293 294 295 295 295 295 294 296 295 295 295 295 295 293 294 293 293 293 292 292 291 292 291 291 290 290 289 289 288 289 288 287